{"data":{"norad_id":63817,"intl_designator":"2025-092P","name":"STARLINK-33959","alt_names":[],"object_type":"PAYLOAD","status":"ACTIVE","operator":null,"country":"US","launch_date":"2025-05-04","launch_site_code":"AFETR","launch_vehicle":null,"mission":null,"orbit_class":"UNKNOWN","rcs_meters":null,"size_class":null,"mass_kg":null,"dimensions":null,"purposes":["comms"],"wikipedia_slug":null,"has_3d_model":false,"image_url":null,"decayed_at":null,"tle_current":{"epoch":"2026-09-20T04:12:43.420320Z","epoch_age_seconds":177953,"freshness":"STALE","line1":"1 63817U 25092P   26263.17550255  .00005541  00000+0  21071-3 0  9990","line2":"2 63817  43.0014 153.7668 0001369 271.2314  88.8381 15.27579746 78413","mean_motion":15.27579746,"eccentricity":0.0001369,"inclination_deg":43.0014,"raan_deg":153.7668,"arg_perigee_deg":271.2314,"mean_anomaly_deg":88.8381,"bstar":0.00021071,"rev_number":7841,"period_min":94.266764387959,"perigee_km":482.11056012647,"apogee_km":483.9891530878,"semimajor_km":6861.1868566071,"source":"CELESTRAK","updated_at":"2026-09-21T09:00:35.106372Z"}}}